Regional Weather Roundup
Issued by NWS

Home | Current Version | Previous Version | Text Only | Print | Product List | Glossary On
Versions: 1 2 3 4 5 6 7 8 9 10 11 12 13 14 15 16 17 18 19 20 21 22 23 24 25 26 27 28 29 30 31 32 33 34 35 36 37 38 39 40 41 42 43 44 45 46 47 48 49 50
955
ASUS44 KJAN 252110
RWRMS

MISSISSIPPI HOURLY WEATHER ROUNDUP
NATIONAL WEATHER SERVICE JACKSON MS
400 PM CDT FRI MAY 25 2018

NOTE: "FAIR: INDICATES FEW OR NO CLOUDS BELOW 12,000 FEET WITH NO
SIGNIFICANT WEATHER AND/OR OBSTRUCTIONS TO VISIBILITY.

MSZ001>002-007>008-010>013-018>021-025>028-034>036-252200-
NORTHWEST MISSISSIPPI

CITY           SKY/WX    TMP DP  RH WIND       PRES   REMARKS
BATESVILLE       N/A    N/A N/A N/A MISG        N/A
CLARKSDALE     SUNNY     79  77  94 W6        29.92S
CLEVELAND      FAIR      83  70  64 NE5       29.90F
GREENWOOD      FAIR      78  71  79 S6        29.90F
GREENVILLE     FAIR      84  71  65 E8        29.89S
OLIVE BRANCH   PTSUNNY   84  68  58 SW7       29.89S
TUNICA           N/A     73  68  83 W9        29.92F
WINONA         LGT RAIN  74  73  95 CALM      29.92R
$$

MSZ003>006-009-014>017-022>024-029>033-037>039-252200-
NORTHEAST MISSISSIPPI

CITY           SKY/WX    TMP DP  RH WIND       PRES   REMARKS
ABERDEEN         N/A     90  79  70 SE5       29.91S HX 105
COLUMBUS AFB   FAIR      85  71  62 SW5       29.89F HX  90
CORINTH        MOCLDY    79  68  69 N12G21    29.90S
GOLDN TRIANGLE PTSUNNY   82  72  71 SW6       29.91S
STARKVILLE     FAIR      81  70  69 S5        29.92S
TUPELO         FAIR      85  65  51 SW7       29.90S
$$

MSZ040-058-252200-
CENTRAL MISSISSIPPI

CITY           SKY/WX    TMP DP  RH WIND       PRES   REMARKS
JACKSON INTL   TSTM      75  69  81 W26G36    29.93R
JACKSON HAWKNS TSTM      69  67  93 W7          N/A  VSB 1/2
MADISON        FAIR      77  68  73 W12G18    29.93R THUNDER
MERIDIAN KEY   FAIR      86  70  58 SE9       29.91F HX  90
MERIDIAN NAS   LGT RAIN  82  72  71 S5        29.92S
RAYMOND        MOCLDY    70  70 100 CALM      29.94F FOG
VICKSBURG VKS  PTCLDY    79  68  69 CALM        N/A
$$

MSZ059>079-252200-
SOUTH MISSISSIPPI

CITY           SKY/WX    TMP DP  RH WIND       PRES   REMARKS
COLUMBIA       MOCLDY    77  70  78 SE10G21   29.98R
HATTIESBURG    PTSUNNY   77  68  73 S14       29.95S
LAUREL         CLOUDY    80  72  77 S8        29.93S
MCCOMB         CLOUDY    76  68  76 N7        29.94R THUNDER
NATCHEZ        FAIR      83  74  74 S8        29.93F
PINE BELT      CLOUDY    82  72  69 S13       29.93F
$$

MSZ080>082-252200-
COASTAL MISSISSIPPI

CITY           SKY/WX    TMP DP  RH WIND       PRES   REMARKS
BAY ST LOUIS   PTSUNNY   73  73 100 VRB3      29.95F
BILOXI         FAIR      83  70  63 S5        29.93F
PASCAGOULA     FAIR      79  70  74 MISG      29.94F
GULFPORT       PTSUNNY   80  71  74 N5        29.94F
$$

LAZ007>009-015>016-023>026-252200-
NORTHEAST LOUISIANA

CITY           SKY/WX    TMP DP  RH WIND       PRES   REMARKS
BASTROP        FAIR      92  69  47 W5        29.88F HX  96
TALLULAH/VBURG TSTM      77  71  82 S10       29.92R
VIDALIA        FAIR      82  72  72 S6        29.91F
$$




USA.gov is the U.S. government's official web portal to all federal, state and local government web resources and services.